Regional Weather Roundup
Issued by NWS

Home | Current Version | Previous Version | Text Only | Print | Product List | Glossary On
Versions: 1 2 3 4 5 6 7 8 9 10 11 12 13 14 15 16 17 18 19 20 21 22 23 24 25 26 27 28 29 30 31 32 33 34 35 36 37 38 39 40 41 42 43 44 45 46 47 48 49 50
000
ASUS43 KMPX 270601
RWRMN
WEATHER ROUNDUP FOR MINNESOTA
NATIONAL WEATHER SERVICE TWIN CITIES/CHANHASSEN MN
100 AM CDT WED JUL 27 2016


NOTE: "FAIR" INDICATES FEW OR NO CLOUDS BELOW 12,000 FEET WITH NO
SIGNIFICANT WEATHER AND/OR OBSTRUCTIONS TO VISIBILITY. N/A MEANS
CURRENT SKY AND/OR WEATHER CONDITIONS ARE NOT AVAILABLE.

MNZ060>063-068>070-270700-
   Twin Cities Metro

CITY           SKY/WX    TMP DP  RH WIND       PRES   REMARKS
TWIN CITIES    CLOUDY    80  68  66 SW6       29.98F
6HR MIN TEMP:  80; 6HR MAX TEMP:  87;

ST PAUL        CLOUDY    78  70  76 CALM      29.99S
CRYSTAL        CLOUDY    77  67  71 S3        29.96F
BLAINE         MOCLDY    75  64  69 CALM      29.98F
LAKEVILLE      CLOUDY    73  68  83 CALM      29.99F
EDEN PRAIRIE   CLOUDY    77  70  79 SW7       29.97F
6HR MIN TEMP:  77; 6HR MAX TEMP:  86;

LAKEVILLE      CLOUDY    73  68  83 CALM      29.99F
SOUTH ST PAUL  CLOUDY    79  66  64 CALM      29.98F
LAKE ELMO      FAIR      72  68  88 CALM      30.00F
$$
MNZ001>005-007-008-013>017-022>024-027-028-270700-
   Northwest Minnesota

CITY           SKY/WX    TMP DP  RH WIND       PRES   REMARKS
HALLOCK        CLOUDY    64  61  88 NE7       30.04S
ROSEAU         MOCLDY    64  57  77 N5        30.05S
WARROAD        MOCLDY    66  57  72 NW3       30.05S
THIEF RVR FALL CLOUDY    69  58  67 NW7       30.05R THUNDER
CROOKSTON      CLOUDY    66  61  82 E15G21    30.02F
FOSSTON        CLOUDY    66  63  88 SW6       30.03S
DETROIT LAKES  LGT RAIN  64  63  94 NE10      29.98F
MOORHEAD       DRIZZLE   66  64  94 NE6       29.97F
PARK RAPIDS    CLOUDY    71  67  87 N8        29.97F
MAHNOMEN       LGT RAIN  65  64  97 CALM      29.99F
$$
MNZ006-009>011-018-025>026-270700-
   North Central Minnesota

CITY           SKY/WX    TMP DP  RH WIND       PRES   REMARKS
BAUDETTE       CLOUDY    67  56  67 N8        30.02S
FLAG ISLAND    PTCLDY    70  57  64 N9        30.03R
INTL FALLS     CLOUDY    64  59  83 CALM      30.00S
6HR MIN TEMP:  63; 6HR MAX TEMP:  79;

WASKISH        CLOUDY    66  61  82 CALM      30.01F
BIG FORK       CLOUDY    68  64  88 SW3       30.02R
LONGVILLE      CLOUDY    66  64  94 CALM      29.97F
GRAND RAPIDS   CLOUDY    66  64  93 CALM      30.01F
CRANE LAKE     CLOUDY    57  55  94 S1        30.02R
ORR            CLOUDY    64  57  77 CALM      29.98S
COOK           CLOUDY    64  63  94 CALM      30.01S THUNDER
WALKER         FAIR      69  68  98 CALM      29.98F
$$
MNZ012-019>021-037-270700-
   Northeast Minnesota

CITY           SKY/WX    TMP DP  RH WIND       PRES   REMARKS
DULUTH         CLOUDY    71  68  90 N6        29.97S
6HR MIN TEMP:  71; 6HR MAX TEMP:  80;

ELY            CLOUDY    61  61 100 CALM      30.01R
HIBBING        CLOUDY    63  60  90 N3        29.99S
EVELETH        CLOUDY    63  62  97 CALM      30.00S
DULUTH HARBOR  MOCLDY    73  64  73 SW13      29.95S
TWO HARBORS    PTCLDY    73  70  88 CALM      29.95S
SILVER BAY     CLOUDY    68  63  83 E3        29.96S
GRAND MARAIS     N/A     67  54  63 CALM      29.95R
G MARAIS ARPRT CLOUDY    61  52  72 N7        30.02S
$$
MNZ029>031-032-039>041-046>048-054>057-064-270700-
   West Central Minnesota

CITY           SKY/WX    TMP DP  RH WIND       PRES   REMARKS
FERGUS FALLS   CLOUDY    70  63  78 E5        29.96F
WHEATON        CLOUDY    72  66  83 SE5       29.98F
MORRIS         CLOUDY    70  66  88 NE3       29.96F
ALEXANDRIA     CLOUDY    71  67  87 NW6       29.99F
ELBOW LAKE     FAIR      70  66  86 NE5       29.97F
WADENA         CLOUDY    64  64 100 CALM      29.98R
GLENWOOD       CLOUDY    70  68  94 CALM      29.99S
APPLETON       CLOUDY    72  66  83 CALM      29.97R
BENSON         LGT RAIN  72  64  78 CALM      29.98R
ORTONVILLE     RAIN      70  64  83 CALM      29.97R
MADISON        CLOUDY    72  66  83 SE3       29.97S
WILLMAR        FAIR      72  68  88 CALM      29.99F
$$
MNZ033>034-036-042>043-049>051-058-059-270700-
   Central Minnesota

CITY           SKY/WX    TMP DP  RH WIND       PRES   REMARKS
ST CLOUD       CLOUDY    67  66  97 CALM      29.96F
6HR MIN TEMP:  67; 6HR MAX TEMP:  78;

SAUK CENTRE    FAIR      68  66  93 CALM      29.98F
PAYNESVILLE    LGT RAIN  71  70  97 CALM      29.98F
AITKIN         CLOUDY    64  59  82 CALM      29.97F
PINE RIVER     CLOUDY    64  64 100 CALM      30.01F
BRAINERD       MOCLDY    65  63  93 CALM      29.98F
STAPLES        CLOUDY    64  63  94 CALM      29.96F
LONG PRAIRIE   FAIR      64  64 100 CALM      29.98F
LITTLE FALLS   CLOUDY    63  61  94 CALM      29.98F
LITCHFIELD     CLOUDY    75  73  94 CALM      29.99S
BUFFALO        CLOUDY    73  67  80 CALM      29.99F
MAPLE LAKE     CLOUDY    73  69  87 S3        29.98F
HUTCHINSON     CLOUDY    74  72  91 CALM      29.99F
$$
MNZ037-044-045-052-053-270700-
   East Central Minnesota

CITY           SKY/WX    TMP DP  RH WIND       PRES   REMARKS
PRINCETON      CLOUDY    72  63  73 SE3       29.97F
MORA           CLOUDY    64  63  94 CALM      30.00F
CAMBRIDGE      CLOUDY    73  61  64 SE3       29.96F
RUSH CITY      CLOUDY    68  63  86 CALM      29.99F
MOOSE LAKE     CLOUDY    64  63  94 CALM      29.97S
HINCKLEY       FAIR      64  64 100 CALM      29.99S
CLOQUET        MOCLDY    68  61  77 CALM      29.98F
MCGREGOR       CLOUDY    63  61  94 S3        29.99S
$$
MNZ071>073-080-081-089-090-097-098-270700-
   Southwest Minnesota

CITY           SKY/WX    TMP DP  RH WIND       PRES   REMARKS
MONTEVIDEO     LGT RAIN  72  66  83 S5        29.99F
GRANITE FALLS  CLOUDY    72  68  86 CALM      30.00R
CANBY          CLOUDY    73  65  77 E6        29.98F
MARSHALL       CLOUDY    74  69  85 S8        29.99S
REDWOOD FALLS  PTCLDY    73  68  84 S6        29.98F
OLIVIA         PTCLDY    73  70  88 S5        29.98F
PIPESTONE      CLOUDY    72  64  78 S7        30.00F
WINDOM         CLOUDY    72  66  83 S5        30.00F
WORTHINGTON    CLOUDY    72  66  81 S7        30.02S
JACKSON        CLEAR     72  64  78 S7        30.01F
TRACY          CLOUDY    73  69  86 CALM      30.00S
SLAYTON        CLOUDY    67  65  93 S5        30.02S
$$
MNZ065>067-074>077-082>085-091>093-270700-
   South Central Minnesota

CITY           SKY/WX    TMP DP  RH WIND       PRES   REMARKS
MANKATO        CLOUDY    73  66  78 S3        30.00F
NEW ULM        PTCLDY    70  70 100 CALM      29.99F
ST JAMES       CLEAR     64  63  94 CALM      30.00F
FAIRMONT       CLEAR     70  64  83 CALM      29.99F
GLENCOE        CLOUDY    76  73  90 S3        29.98F
FARIBAULT      MOCLDY    72  70  94 CALM      30.01S
OWATONNA       PTCLDY    70  66  88 CALM      30.02R
WASECA         CLOUDY    72  68  88 S3        30.02F
ALBERT LEA     MOCLDY    73  66  78 SW5       30.02S
$$
MNZ078>079-086>088-094>096-270700-
   Southeast Minnesota

CITY           SKY/WX    TMP DP  RH WIND       PRES   REMARKS
ROCHESTER      CLEAR     68  66  93 S7        30.02F
6HR MIN TEMP:  68; 6HR MAX TEMP:  82;

RED WING       CLEAR     70  66  88 CALM      29.98F
STANTON        PTCLDY    70  66  88 S3        29.99S
DODGE CENTER   CLEAR     70  64  83 SW7       30.02S
WINONA         PTCLDY    73  70  88 CALM      30.00R
AUSTIN         CLEAR     68  64  88 CALM      30.02S
PRESTON        CLEAR     69  65  88 SW5       30.03S
$$
ABBREVIATIONS USED IN REMARKS
   TC - TEMPERATURES IN CELSIUS
  WCI - WIND CHILL INDEX
   HX - HEAT INDEX
  VSB - VISIBILITY
$$



USA.gov is the U.S. government's official web portal to all federal, state and local government web resources and services.